[[{"header":{"parameterUnit":"m.s-1","parameterCategory":1,"la1":30.2991,"la2":30.254,"lo1":-89.0895,"lo2":-89.0444,"dy":0.0017,"dx":0.0017,"nx":28,"ny":28,"refTime":"2024-07-13T03:00:00:Z","depth":0,"parameterNumber":2,"parameterNumberName":"U-component_of_WINDS"},"data":[0,0,0,0,0,0,0,0,0,0,0,0,0,0,0,0,0,0,0,0,0,0,0,0,0,0,0,0,0,0,0,0,0,0,0,0,0,0,0,0,0,0,0,0,0,0,0,0,0,0,0,0,0,0,0,0,0,0,1.8967,1.8967,0,1.8974,1.8974,1.8974,1.8917,1.8915,1.8914,1.8912,1.8924,1.8925,1.8927,0,0,0,0,0,0,0,0,0,0,0,0,0,1.8909,1.8911,1.8967,1.8967,1.8967,1.8974,1.8974,1.8974,1.8917,1.8915,1.8913,1.8911,1.8923,1.8925,1.8927,0,0,0,0,0,0,0,0,0,0,0,0,0,1.8927,1.8911,1.8967,1.8939,1.8937,1.8974,1.8974,1.8974,1.8918,1.8915,1.8913,1.8911,1.8922,1.8925,1.8928,1.8992,0,0,1.8936,1.8937,0,0,0,0,0,0,0,0,1.8926,1.8929,1.8943,1.8941,1.8939,1.8942,1.8958,1.898,1.8918,1.8925,1.8912,1.8909,1.8932,1.8934,1.894,1.8993,1.8993,1.8936,1.8938,1.8939,1.8939,0,0,0,0,0,0,0,1.8925,1.8929,1.8969,1.8943,1.8941,1.8928,1.8928,1.8962,1.8942,1.8924,1.892,1.8922,1.893,1.8938,1.894,1.8993,1.8936,1.8938,1.894,1.8941,1.9102,1.9104,0,0,0,0,0,0,1.8927,1.8928,1.8969,1.897,1.8926,1.8931,1.8931,1.8943,1.8941,1.8939,1.8924,1.8919,1.8934,1.8937,1.894,1.9017,1.8939,1.8941,1.8943,1.9099,1.9102,1.9105,0,0,0,0,0,0,1.8926,1.8931,1.8969,1.8948,1.8952,1.8935,1.8949,1.8945,1.8952,1.8941,1.8937,1.8935,1.8933,1.8937,1.898,1.9017,1.8942,1.8945,1.9096,1.91,1.9104,1.9171,0,0,0,0,0,0,1.8925,1.8931,1.8954,1.8949,1.8953,1.9007,1.8951,1.8947,1.8957,1.895,1.895,1.8948,1.8931,1.8976,1.8983,1.9019,1.8947,1.9092,1.9098,1.9102,1.9166,1.9177,1.9187,0,0,0,0,0,1.8923,1.8973,1.8955,1.8961,1.8981,1.9009,1.9012,1.899,1.896,1.8984,1.8977,1.8948,1.9012,1.8981,1.8988,1.9026,1.909,1.9096,1.9102,1.9161,1.9175,1.9186,0,0,0,0,0,0,1.8984,1.8972,1.8952,1.9002,1.9007,1.8999,1.9029,1.9005,1.902,1.9013,1.8987,1.8988,1.9036,1.9035,1.9001,1.909,1.9046,1.9054,1.9088,1.9101,1.9112,1.9112,1.8949,0,0,0,0,0,1.9003,1.9026,1.9014,1.906,1.9063,1.9046,1.9057,1.904,1.9045,1.9047,1.9043,1.905,1.9071,1.9086,1.9105,1.9165,1.9166,1.9195,1.9206,1.9214,1.9222,1.9255,1.9269,1.9125,1.9125,1.9125,0,0,1.9044,1.904,1.9055,1.9072,1.9074,1.9099,1.9048,1.9076,1.9096,1.9051,1.9092,1.909,1.9096,1.9149,1.9171,1.9149,1.9262,1.9222,1.9229,1.9231,1.9263,1.9277,1.9289,1.9129,1.9128,1.9127,0,0,1.913,1.9129,1.9167,1.917,1.9173,1.9162,1.9171,1.9168,1.9164,1.9204,1.9172,1.9196,1.9233,1.9239,1.9247,1.9339,1.9314,1.9346,1.9402,1.9435,1.9446,1.9456,1.9491,1.9503,1.9353,1.9353,1.9353,0,1.918,1.9216,1.919,1.9221,1.9231,1.9191,1.9231,1.9236,1.9246,1.9254,1.9228,1.9276,1.9277,1.9332,1.9354,1.9361,1.9373,1.9346,1.9446,1.9456,1.9465,1.9498,1.9511,1.9357,1.9357,1.9356,1.9356,0,1.9278,1.9304,1.9335,1.9345,1.9357,1.9393,1.9375,1.9391,1.9373,1.9365,1.9408,1.9408,1.9428,1.9439,1.9423,1.9493,1.9479,1.9451,1.9406,1.9483,1.9514,1.9526,1.9363,1.9361,1.936,1.9359,0,0,1.9403,1.9399,1.9411,1.9416,1.9417,1.9438,1.9473,1.9491,1.9506,1.9515,1.9545,1.9579,1.9553,1.9562,1.9546,1.9575,1.965,1.9544,1.9543,1.9565,1.973,1.9752,1.9767,1.9634,1.9636,1.9638,1.973,0,1.9489,1.9547,1.9526,1.9586,1.961,1.9574,1.9605,1.961,1.9604,1.9626,1.9619,1.9644,1.9607,1.9613,1.964,1.9635,1.9683,1.9628,1.9664,1.9665,1.9664,1.9782,1.9806,1.9893,1.9742,1.9744,1.9745,0,1.9596,1.9609,1.9671,1.967,1.968,1.9708,1.9724,1.9744,1.9751,1.9744,1.9756,1.9734,1.9771,1.9726,1.9777,1.974,1.9754,1.9754,1.9757,1.976,1.9711,1.9791,1.992,1.9934,1.9763,1.9762,1.976,0,1.9684,1.9716,1.9758,1.9763,1.9763,1.9784,1.9785,1.9788,1.9802,1.9816,1.9825,1.9844,1.9855,1.9872,1.9857,1.9825,1.9911,1.9865,1.9909,1.991,1.993,1.9929,2.0064,1.9936,1.9936,1.9936,1.9935,0,1.9782,1.9822,1.9798,1.9824,1.9869,1.9845,1.989,1.9888,1.9892,1.9918,1.9888,1.9914,1.9892,1.9917,1.9905,1.9951,1.9956,1.9954,1.995,1.9957,1.9958,1.9966,1.996,1.9939,1.9938,1.9938,1.9937,0,1.9887,1.9872,1.9916,1.9912,1.9912,1.9945,1.9943,1.9968,1.996,1.9994,2.0001,1.9989,2.0017,2.0003,2.0032,2.0025,2.0084,2.0072,2.0082,2.0079,2.0125,2.0122,2.0272,2.0292,2.015,2.0151,2.0152,0,1.9952,1.9982,1.9981,1.9996,1.9999,2.0024,2.0037,2.0015,2.0031,2.0041,2.0066,2.0091,2.011,2.0156,2.0151,2.0174,2.0163,2.0215,2.0167,2.0173,2.0167,2.0165,2.0169,2.0225,2.0226,2.0228,2.0229,0,2.0069,2.006,2.0079,2.0097,2.0113,2.0126,2.0136,2.0151,2.013,2.0149,2.0177,2.0191,2.0221,2.0247,2.0267,2.027,2.0248,2.0244,2.0256,2.0263,2.0268,2.0268,2.011,2.0241,2.0239,2.0239,2.0238,2.0237,2.0157,2.0182,2.0186,2.021,2.0215,2.0226,2.025,2.0245,2.0267,2.0289,2.0275,2.0308,2.0317,2.0341,2.0348,2.0375,2.0355,2.0371,2.0376,2.0381,2.0388,2.0263,2.0378,2.0378,2.0377,2.0377,2.0377,0,2.0274,2.0274,2.0296,2.0311,2.033,2.0305,2.0316,2.0334,2.0363,2.0372,2.0391,2.0424,2.045,2.0447,2.0471,2.0494,2.0484,2.0501,2.05,2.0502,2.0403,2.0391,2.0509,2.0509,2.0509,2.0509,2.0509,2.0508,2.0337,2.0379,2.0372,2.0418,2.0419,2.045,2.0459,2.047,2.0477,2.0515,2.0535,2.0533,2.0538,2.0563,2.0586,2.0585,2.0596,2.0617,2.0613,2.0521,2.0508,2.0496,2.0484,2.062,2.062,2.0709,2.071,2.071]},{"header":{"parameterUnit":"m.s-1","parameterCategory":1,"la1":30.2991,"la2":30.254,"lo1":-89.0895,"lo2":-89.0444,"dy":0.0017,"dx":0.0017,"nx":28,"ny":28,"refTime":"2024-07-13T03:00:00:Z","depth":0,"parameterNumber":3,"parameterNumberName":"V-component_of_WINDS"},"data":[0,0,0,0,0,0,0,0,0,0,0,0,0,0,0,0,0,0,0,0,0,0,0,0,0,0,0,0,0,0,0,0,0,0,0,0,0,0,0,0,0,0,0,0,0,0,0,0,0,0,0,0,0,0,0,0,0,0,-1.025,-1.025,0,-1.0241,-1.0241,-1.0241,-1.0233,-1.0233,-1.0233,-1.0233,-1.0222,-1.0222,-1.0222,0,0,0,0,0,0,0,0,0,0,0,0,0,-1.0261,-1.0261,-1.0251,-1.025,-1.025,-1.0241,-1.0241,-1.0241,-1.0233,-1.0233,-1.0233,-1.0232,-1.0222,-1.0222,-1.0222,0,0,0,0,0,0,0,0,0,0,0,0,0,-1.0255,-1.0261,-1.0251,-1.0245,-1.0245,-1.0241,-1.0241,-1.0241,-1.0233,-1.0233,-1.0233,-1.0232,-1.0223,-1.0222,-1.0222,-1.0223,0,0,-1.0221,-1.0221,0,0,0,0,0,0,0,0,-1.0255,-1.0254,-1.0246,-1.0245,-1.0245,-1.0238,-1.0241,-1.0235,-1.0233,-1.0237,-1.0233,-1.0232,-1.0228,-1.0227,-1.0226,-1.0223,-1.0222,-1.0221,-1.0221,-1.0221,-1.0221,0,0,0,0,0,0,0,-1.0256,-1.0255,-1.0247,-1.0246,-1.0245,-1.0243,-1.0242,-1.024,-1.0233,-1.0237,-1.0236,-1.0235,-1.0227,-1.0226,-1.0225,-1.0222,-1.0221,-1.0221,-1.0221,-1.0221,-1.0222,-1.0222,0,0,0,0,0,0,-1.0257,-1.0255,-1.0247,-1.0247,-1.025,-1.0243,-1.0242,-1.024,-1.0233,-1.0232,-1.0235,-1.0235,-1.0226,-1.0226,-1.0225,-1.0227,-1.0221,-1.0221,-1.022,-1.0222,-1.0222,-1.0222,0,0,0,0,0,0,-1.0257,-1.0256,-1.0248,-1.0251,-1.0249,-1.0243,-1.0241,-1.024,-1.0239,-1.0232,-1.0231,-1.0235,-1.0226,-1.0225,-1.0224,-1.0227,-1.0221,-1.022,-1.0222,-1.0222,-1.0222,-1.0231,0,0,0,0,0,0,-1.0258,-1.0256,-1.0257,-1.0251,-1.0249,-1.0247,-1.0242,-1.024,-1.0238,-1.0238,-1.0232,-1.0231,-1.0226,-1.0225,-1.0224,-1.0226,-1.022,-1.0221,-1.0222,-1.0222,-1.0231,-1.0232,-1.0233,0,0,0,0,0,-1.0258,-1.0259,-1.0257,-1.0256,-1.0249,-1.0247,-1.0246,-1.0241,-1.0239,-1.0239,-1.0235,-1.0231,-1.0227,-1.0225,-1.0224,-1.0226,-1.0221,-1.0222,-1.0222,-1.023,-1.0232,-1.0233,0,0,0,0,0,0,-1.0264,-1.0258,-1.0255,-1.0254,-1.0251,-1.0246,-1.0246,-1.0242,-1.024,-1.0239,-1.0233,-1.0232,-1.0232,-1.0229,-1.0227,-1.0228,-1.0223,-1.0224,-1.023,-1.0231,-1.0232,-1.0233,-1.022,0,0,0,0,0,-1.0266,-1.0264,-1.0259,-1.0258,-1.0257,-1.0252,-1.025,-1.0247,-1.0244,-1.0242,-1.0238,-1.0235,-1.0233,-1.0232,-1.023,-1.023,-1.023,-1.0232,-1.0233,-1.0233,-1.0234,-1.0236,-1.0237,-1.0224,-1.0224,-1.0224,0,0,-1.0268,-1.0265,-1.0264,-1.026,-1.0257,-1.0256,-1.0251,-1.0249,-1.0249,-1.0242,-1.0241,-1.0238,-1.0234,-1.0235,-1.0235,-1.0232,-1.0238,-1.0234,-1.0235,-1.0235,-1.0236,-1.0238,-1.0239,-1.0224,-1.0224,-1.0224,0,0,-1.0272,-1.0269,-1.0269,-1.0267,-1.0264,-1.026,-1.0261,-1.0256,-1.0254,-1.0253,-1.0248,-1.0248,-1.0244,-1.0242,-1.0241,-1.0247,-1.0243,-1.0246,-1.0252,-1.0253,-1.0255,-1.0255,-1.0259,-1.026,-1.0246,-1.0247,-1.0247,0,-1.0276,-1.0274,-1.027,-1.027,-1.0268,-1.0263,-1.0264,-1.0262,-1.0257,-1.0257,-1.0254,-1.0251,-1.0248,-1.0249,-1.025,-1.0249,-1.025,-1.0247,-1.0255,-1.0256,-1.0256,-1.026,-1.0261,-1.0247,-1.0247,-1.0247,-1.0247,0,-1.028,-1.0279,-1.0279,-1.0277,-1.0275,-1.0275,-1.0271,-1.0271,-1.0268,-1.0266,-1.0266,-1.0262,-1.026,-1.026,-1.0256,-1.0261,-1.0259,-1.0256,-1.0251,-1.0258,-1.0261,-1.0262,-1.0248,-1.0248,-1.0247,-1.0247,0,0,-1.0286,-1.0282,-1.0283,-1.0282,-1.0279,-1.0278,-1.0279,-1.0277,-1.0278,-1.0275,-1.0276,-1.0274,-1.0272,-1.027,-1.0267,-1.0268,-1.0275,-1.0265,-1.0265,-1.0268,-1.0281,-1.0284,-1.0286,-1.0273,-1.0273,-1.0273,-1.0282,0,-1.0291,-1.0291,-1.0288,-1.029,-1.029,-1.0286,-1.0287,-1.0285,-1.0283,-1.0283,-1.0281,-1.028,-1.0276,-1.0275,-1.0277,-1.0274,-1.0278,-1.0273,-1.0274,-1.0274,-1.0276,-1.0287,-1.029,-1.0298,-1.0283,-1.0283,-1.0283,0,-1.0295,-1.0295,-1.0297,-1.0295,-1.0295,-1.0296,-1.0295,-1.0295,-1.0294,-1.0292,-1.0292,-1.0288,-1.0289,-1.0285,-1.0287,-1.0284,-1.0285,-1.0284,-1.0284,-1.0284,-1.028,-1.0288,-1.0301,-1.0302,-1.0285,-1.0285,-1.0285,0,-1.0301,-1.0301,-1.0303,-1.0302,-1.03,-1.0301,-1.03,-1.0299,-1.0299,-1.0298,-1.0298,-1.0298,-1.0298,-1.0298,-1.0295,-1.0292,-1.0298,-1.0293,-1.0297,-1.0298,-1.0299,-1.0299,-1.0312,-1.0298,-1.0298,-1.0298,-1.0298,0,-1.0307,-1.0308,-1.0306,-1.0307,-1.0309,-1.0306,-1.0308,-1.0307,-1.0306,-1.0308,-1.0304,-1.0305,-1.0301,-1.0302,-1.03,-1.0303,-1.0302,-1.0302,-1.0301,-1.0302,-1.0303,-1.0303,-1.0302,-1.0298,-1.0298,-1.0298,-1.0298,0,-1.0314,-1.0312,-1.0314,-1.0312,-1.0312,-1.0314,-1.0313,-1.0314,-1.0313,-1.0314,-1.0315,-1.0312,-1.0314,-1.0311,-1.0311,-1.031,-1.0315,-1.0313,-1.0315,-1.0315,-1.032,-1.032,-1.0334,-1.0337,-1.032,-1.0321,-1.0321,0,-1.0317,-1.0319,-1.0318,-1.0319,-1.0319,-1.032,-1.0321,-1.0318,-1.0319,-1.0319,-1.0321,-1.0322,-1.0323,-1.0325,-1.0323,-1.0324,-1.0323,-1.0328,-1.0323,-1.0325,-1.0324,-1.0325,-1.0326,-1.0329,-1.0329,-1.0329,-1.033,0,-1.0324,-1.0324,-1.0325,-1.0327,-1.0328,-1.0328,-1.0329,-1.033,-1.0327,-1.0329,-1.033,-1.0331,-1.0333,-1.0335,-1.0336,-1.0335,-1.0332,-1.0331,-1.0333,-1.0334,-1.0336,-1.0336,-1.0319,-1.0331,-1.0331,-1.0331,-1.0331,-1.0331,-1.033,-1.0332,-1.0333,-1.0335,-1.0335,-1.0336,-1.0338,-1.0338,-1.0339,-1.0341,-1.0339,-1.0342,-1.0343,-1.0344,-1.0344,-1.0346,-1.0344,-1.0346,-1.0346,-1.0347,-1.0348,-1.0335,-1.0346,-1.0346,-1.0346,-1.0346,-1.0346,0,-1.0338,-1.0339,-1.0341,-1.0342,-1.0344,-1.0343,-1.0344,-1.0345,-1.0348,-1.0349,-1.035,-1.0354,-1.0356,-1.0355,-1.0357,-1.036,-1.0359,-1.036,-1.036,-1.0361,-1.0349,-1.0349,-1.0361,-1.0361,-1.0361,-1.0361,-1.0361,-1.0361,-1.0342,-1.0346,-1.0346,-1.0351,-1.0352,-1.0355,-1.0356,-1.0357,-1.0358,-1.0362,-1.0364,-1.0364,-1.0365,-1.0368,-1.037,-1.037,-1.0371,-1.0374,-1.0373,-1.0363,-1.0361,-1.036,-1.0359,-1.0374,-1.0374,-1.0384,-1.0384,-1.0385]}]]